Regional Weather Roundup
Issued by NWS Cleveland, OH

Home | Current Version | Previous Version | Graphics & Text | Print | Product List | Glossary On
Versions: 1 2 3 4 5 6 7 8 9 10 11 12 13 14 15 16 17 18 19 20 21 22 23 24 25 26 27 28 29 30 31 32 33 34 35 36 37 38 39 40 41 42 43 44 45 46 47 48 49 50
000
ASUS41 KCLE 020310
RWRCLE
OHIO REGIONAL WEATHER ROUNDUP
NATIONAL WEATHER SERVICE CLEVELAND, OH
1100 PM EDT SUN MAY 01 2016

NOTE: "FAIR" INDICATES FEW OR NO CLOUDS BELOW 12,000 FEET WITH NO
SIGNIFICANT WEATHER AND/OR OBSTRUCTIONS TO VISIBILITY.

OHZ001>008-015>018-024>027-034-035-043-044-020400-
   NORTHWEST OHIO

CITY           SKY/WX    TMP DP  RH WIND       PRES   REMARKS
DEFIANCE       CLOUDY    52  49  89 NE14G20   29.94S FOG
FINDLAY        CLOUDY    53  47  79 NE17      29.91F HAZE
TOLEDO EXPRESS CLOUDY    50  47  89 NE13      29.96F
TOLEDO EXEC    CLOUDY    50  46  86 NE8       29.98S
LIMA           CLOUDY    53  51  93 E13       29.91R
$$

OHZ009>014-019>023-028>033-038-089-020400-
   NORTHEAST OHIO

CITY           SKY/WX    TMP DP  RH WIND       PRES   REMARKS
CLE-HOPKINS    CLOUDY    52  47  83 NE9       29.99F
CLE-LAKEFRONT  CLOUDY    50  48  93 NE13      29.97F FOG
CUY CO. ARPT   CLOUDY    52  48  87 NE9       29.99S
LORAIN-ELYRIA  CLOUDY    50  46  86 E9        29.97F
ASHTABULA      CLOUDY    45  45 100 NE7       30.00F FOG
AKRON-CANTON   CLOUDY    55  51  86 NE7       29.96F
WOOSTER        CLOUDY    53  49  86 NE10      29.95F
MANSFIELD      CLOUDY    52  50  93 NE12      29.94F
YOUNGSTOWN     CLOUDY    53  48  83 N7        29.97S
$$

OHZ042-051>053-060>062-070>072-077>081-020400-
  SOUTHWEST OHIO

CITY           SKY/WX    TMP DP  RH WIND       PRES   REMARKS
CINC-COVINGTON PTCLDY    60  58  92 S7        29.88F
CINC-LUNKEN    CLEAR     59  58  96 S5        29.88F
HAMILTON       CLEAR     62  60  93 CALM      29.87F
DAYTON         CLOUDY    59  58  96 NE6       29.88S
WRIGHT-PAT AFB MOCLDY    61  61 100 NE7       29.87R
DAYTON GENERAL CLEAR     59  56  89 S7        29.86S
WILMINGTON     CLEAR     62  57  83 S7        29.88F
$$

OHZ036-037-039>041-045>050-054>059-063>069-073>076-082>088-020400-
  CENTRAL AND SOUTHEAST OHIO

CITY           SKY/WX    TMP DP  RH WIND       PRES   REMARKS
COLUMBUS       CLOUDY    63  59  88 N5        29.89F
OSU AIRPORT    CLOUDY    58  57  97 NW6       29.90S
BOLTON FIELD   CLOUDY    62  60  96 N6        29.90R
RICKENBACK AFB CLOUDY    62  60  91 CALM      29.88R
NEWARK         LGT RAIN  65  58  78 N6        29.89F
MARION         CLOUDY    54  51  90 NE10      29.92F
LANCASTER      PTCLDY    63  59  87 CALM      29.89S
ZANESVILLE     CLOUDY    66  55  67 NE5       29.88F
NEW PHILLY     CLOUDY    59  54  83 N6        29.94F
$$




USA.gov is the U.S. government's official web portal to all federal, state and local government web resources and services.